Precipitable_Water
1.58 1.60 1.63 1.65 1.69 1.75 1.81 1.82 1.80 1.81 1.77 1.78 1.76 1.73 1.70 1.69 1.69 1.71 1.76 1.76 1.80 1.79 1.77 1.80 1.89 1.93 1.93 1.95 1.93 1.92 1.92 1.94 1.99 2.00 2.01 2.05 2.08 2.06 2.06 2.04 1.98 1.97 2.00 1.97 1.90 1.80 1.66 1.54 1.52 1.59 1.70 1.69 1.68 1.71 1.71 1.72 1.73 1.70 1.69 1.66 1.64 1.67 1.64 1.55 1.41 1.38 1.53 1.67 1.64 1.62 1.71 1.71 1.66 1.74 1.73 1.77 1.84 1.91 1.95 1.96 1.97 1.94 1.93 1.90 1.82
1.56 1.62 1.67 1.69 1.69 1.77 1.82 1.86 1.89 1.97 1.87 1.84 1.79 1.79 1.75 1.71 1.70 1.70 1.67 1.72 1.79 1.79 1.78 1.76 1.83 1.92 1.91 1.93 1.97 1.96 1.94 1.93 1.95 1.97 1.95 1.98 2.04 2.09 2.05 2.01 1.98 1.99 2.02 1.95 1.91 1.87 1.82 1.65 1.56 1.55 1.64 1.67 1.72 1.73 1.71 1.69 1.70 1.68 1.68 1.69 1.69 1.69 1.71 1.54 1.44 1.37 1.31 1.49 1.52 1.63 1.63 1.70 1.58 1.73 1.68 1.69 1.74 1.84 1.84 1.89 1.95 1.95 1.92 1.94 1.92
1.61 1.68 1.70 1.72 1.75 1.81 1.84 1.85 1.86 1.80 1.81 1.83 1.83 1.84 1.82 1.78 1.80 1.72 1.67 1.68 1.76 1.77 1.78 1.78 1.74 1.80 1.88 1.93 1.96 1.98 1.98 1.95 1.96 1.95 1.95 1.95 1.98 2.03 2.06 2.02 1.98 1.97 1.97 1.96 1.97 1.99 1.89 1.82 1.68 1.61 1.61 1.59 1.66 1.71 1.72 1.70 1.70 1.65 1.63 1.66 1.65 1.67 1.65 1.59 1.47 1.38 1.34 1.36 1.49 1.50 1.54 1.60 1.56 1.59 1.67 1.70 1.73 1.77 1.75 1.78 1.83 1.90 1.92 1.94 1.94
1.62 1.64 1.67 1.72 1.77 1.79 1.77 1.72 1.66 1.65 1.69 1.75 1.78 1.88 1.86 1.80 1.86 1.84 1.77 1.71 1.68 1.73 1.76 1.78 1.76 1.72 1.75 1.86 1.93 1.97 1.97 1.98 1.97 1.96 1.96 1.99 1.98 1.99 2.02 2.02 2.01 2.00 1.97 1.95 1.98 2.03 1.96 1.86 1.79 1.71 1.68 1.63 1.60 1.62 1.64 1.66 1.65 1.63 1.60 1.59 1.57 1.55 1.55 1.56 1.56 1.48 1.44 1.34 1.43 1.45 1.53 1.51 1.57 1.61 1.64 1.66 1.66 1.68 1.69 1.72 1.78 1.77 1.81 1.86 1.89
1.65 1.66 1.61 1.58 1.70 1.72 1.69 1.63 1.57 1.64 1.71 1.77 1.76 1.76 1.79 1.82 1.84 1.83 1.83 1.77 1.73 1.72 1.73 1.76 1.75 1.73 1.69 1.74 1.86 1.92 1.96 1.99 1.95 1.93 1.94 1.98 2.01 2.02 2.02 2.01 2.01 2.00 1.98 1.96 1.96 2.02 2.01 1.97 1.91 1.83 1.77 1.68 1.63 1.57 1.57 1.54 1.58 1.58 1.55 1.55 1.54 1.54 1.55 1.55 1.54 1.55 1.48 1.38 1.39 1.49 1.55 1.57 1.60 1.61 1.65 1.58 1.60 1.62 1.66 1.65 1.67 1.69 1.72 1.78 1.83
1.29 1.39 1.50 1.47 1.47 1.57 1.67 1.70 1.68 1.67 1.67 1.73 1.75 1.77 1.67 1.71 1.79 1.82 1.80 1.77 1.75 1.73 1.71 1.73 1.75 1.75 1.76 1.75 1.80 1.87 1.93 1.97 1.99 1.99 1.96 1.95 1.95 1.99 2.01 2.02 2.02 2.02 2.01 1.99 1.95 1.95 2.01 2.00 1.97 1.90 1.88 1.76 1.67 1.63 1.57 1.52 1.52 1.51 1.48 1.49 1.51 1.51 1.50 1.51 1.51 1.50 1.46 1.41 1.39 1.38 1.51 1.50 1.54 1.56 1.63 1.63 1.54 1.50 1.54 1.61 1.67 1.68 1.67 1.67 1.74
1.14 1.13 1.18 1.28 1.30 1.33 1.39 1.49 1.57 1.59 1.60 1.65 1.74 1.73 1.66 1.73 1.80 1.81 1.83 1.80 1.75 1.72 1.72 1.73 1.77 1.77 1.77 1.77 1.74 1.76 1.83 1.90 1.94 1.98 2.01 1.97 1.94 1.92 1.94 1.98 1.97 1.98 2.00 1.99 1.96 1.94 1.95 1.93 1.92 1.91 1.84 1.82 1.84 1.76 1.63 1.57 1.53 1.47 1.47 1.47 1.51 1.51 1.52 1.53 1.53 1.48 1.43 1.37 1.37 1.40 1.40 1.50 1.52 1.47 1.62 1.68 1.64 1.57 1.47 1.47 1.49 1.61 1.66 1.64 1.62
0.93 0.94 0.99 1.04 1.12 1.19 1.25 1.27 1.29 1.33 1.42 1.51 1.57 1.61 1.66 1.72 1.77 1.81 1.80 1.76 1.73 1.74 1.72 1.71 1.75 1.77 1.75 1.73 1.71 1.68 1.67 1.69 1.73 1.78 1.83 1.90 1.92 1.90 1.89 1.91 1.93 1.95 1.94 1.95 1.96 1.96 1.95 1.94 1.93 1.93 1.88 1.90 1.94 1.98 1.86 1.64 1.62 1.56 1.57 1.56 1.55 1.54 1.53 1.54 1.54 1.52 1.46 1.41 1.34 1.30 1.35 1.36 1.45 1.53 1.63 1.63 1.56 1.58 1.61 1.53 1.43 1.46 1.52 1.62 1.64
0.97 0.91 0.88 0.93 1.01 1.13 1.20 1.19 1.20 1.21 1.22 1.24 1.33 1.46 1.53 1.56 1.61 1.69 1.75 1.75 1.73 1.75 1.77 1.76 1.74 1.73 1.71 1.66 1.62 1.61 1.59 1.59 1.62 1.64 1.67 1.73 1.80 1.86 1.89 1.87 1.88 1.90 1.92 1.93 1.95 1.97 1.97 1.96 1.95 1.99 2.04 2.08 2.14 2.01 1.89 1.77 1.67 1.59 1.61 1.63 1.61 1.60 1.59 1.58 1.55 1.52 1.48 1.43 1.38 1.39 1.34 1.32 1.37 1.41 1.43 1.41 1.37 1.40 1.60 1.65 1.54 1.55 1.57 1.55 1.59
0.92 0.89 0.88 0.89 0.97 1.04 1.11 1.11 1.10 1.11 1.10 1.09 1.12 1.20 1.34 1.45 1.49 1.50 1.53 1.62 1.68 1.74 1.79 1.79 1.72 1.62 1.58 1.62 1.63 1.67 1.68 1.69 1.68 1.71 1.74 1.75 1.75 1.76 1.81 1.84 1.86 1.86 1.88 1.90 1.93 1.97 1.99 1.99 1.99 1.99 2.00 2.00 1.98 1.95 1.91 1.86 1.81 1.71 1.65 1.65 1.64 1.60 1.57 1.56 1.56 1.54 1.49 1.43 1.41 1.40 1.36 1.34 1.35 1.39 1.39 1.42 1.47 1.55 1.59 1.64 1.55 1.60 1.63 1.57 1.59
0.77 0.77 0.79 0.87 0.92 0.95 1.01 1.00 0.99 0.98 0.99 0.99 1.02 1.07 1.11 1.24 1.35 1.42 1.45 1.51 1.58 1.63 1.68 1.61 1.54 1.55 1.55 1.57 1.66 1.73 1.74 1.75 1.77 1.76 1.75 1.78 1.80 1.80 1.79 1.81 1.86 1.86 1.83 1.81 1.83 1.87 1.91 1.96 1.99 2.01 2.02 1.99 1.96 1.97 1.98 1.93 1.88 1.84 1.81 1.78 1.76 1.68 1.58 1.52 1.50 1.54 1.53 1.49 1.50 1.49 1.42 1.35 1.39 1.45 1.43 1.44 1.49 1.48 1.48 1.58 1.63 1.65 1.59 1.51 1.40
0.71 0.70 0.73 0.78 0.85 0.89 0.95 0.96 0.89 0.88 0.90 0.90 0.94 1.02 1.06 1.06 1.10 1.22 1.34 1.41 1.51 1.62 1.63 1.60 1.51 1.50 1.59 1.63 1.66 1.70 1.72 1.73 1.76 1.77 1.75 1.76 1.82 1.83 1.81 1.77 1.79 1.83 1.84 1.80 1.76 1.78 1.81 1.86 1.93 1.99 2.00 1.98 1.95 1.93 1.92 1.90 1.88 1.89 1.87 1.83 1.78 1.77 1.76 1.67 1.58 1.55 1.56 1.52 1.51 1.52 1.52 1.46 1.43 1.46 1.46 1.48 1.46 1.47 1.46 1.46 1.51 1.55 1.55 1.52 1.48
0.68 0.68 0.72 0.78 0.83 0.87 0.91 0.91 0.88 0.87 0.87 0.89 0.91 0.96 1.02 1.03 1.01 1.02 1.11 1.29 1.42 1.47 1.54 1.56 1.51 1.52 1.52 1.53 1.58 1.64 1.67 1.70 1.71 1.75 1.76 1.75 1.76 1.79 1.80 1.78 1.72 1.70 1.73 1.76 1.76 1.76 1.76 1.77 1.81 1.92 1.96 1.98 1.96 1.92 1.86 1.84 1.87 1.89 1.88 1.84 1.81 1.79 1.77 1.80 1.84 1.79 1.71 1.60 1.53 1.53 1.57 1.57 1.49 1.48 1.56 1.57 1.62 1.50 1.49 1.45 1.47 1.50 1.53 1.50 1.48
0.70 0.71 0.75 0.81 0.86 0.88 0.90 0.90 0.89 0.90 0.91 0.91 0.92 0.91 0.94 0.97 1.03 1.04 1.04 1.11 1.19 1.28 1.40 1.47 1.52 1.51 1.50 1.51 1.55 1.62 1.64 1.68 1.71 1.76 1.80 1.80 1.79 1.78 1.77 1.77 1.76 1.73 1.73 1.75 1.76 1.74 1.74 1.74 1.73 1.75 1.83 1.86 1.91 1.90 1.87 1.85 1.85 1.87 1.87 1.87 1.84 1.81 1.79 1.78 1.80 1.83 1.85 1.78 1.70 1.60 1.66 1.72 1.62 1.63 1.70 1.73 1.64 1.56 1.55 1.51 1.55 1.53 1.52 1.50 1.58
0.73 0.76 0.77 0.80 0.84 0.86 0.87 0.88 0.87 0.88 0.90 0.92 0.93 0.92 0.91 0.93 0.97 1.01 1.02 1.04 1.08 1.09 1.15 1.26 1.38 1.48 1.54 1.57 1.57 1.59 1.64 1.70 1.70 1.69 1.70 1.74 1.78 1.80 1.78 1.75 1.73 1.72 1.72 1.72 1.71 1.74 1.75 1.73 1.71 1.70 1.73 1.77 1.83 1.84 1.84 1.85 1.87 1.88 1.86 1.81 1.81 1.80 1.80 1.79 1.78 1.78 1.78 1.78 1.74 1.75 1.79 1.87 1.87 1.86 1.85 1.86 1.79 1.76 1.73 1.68 1.69 1.69 1.70 1.75 1.73
0.75 0.77 0.78 0.80 0.83 0.85 0.85 0.85 0.86 0.87 0.88 0.88 0.89 0.91 0.92 0.92 0.92 0.97 0.99 1.02 1.07 1.13 1.14 1.17 1.20 1.31 1.45 1.53 1.55 1.53 1.61 1.68 1.71 1.70 1.67 1.65 1.69 1.71 1.70 1.68 1.65 1.65 1.65 1.68 1.69 1.70 1.75 1.78 1.77 1.73 1.70 1.72 1.76 1.81 1.86 1.89 1.87 1.83 1.81 1.83 1.85 1.88 1.86 1.89 1.93 1.94 1.93 1.87 1.82 1.81 1.86 1.93 1.95 1.91 1.91 1.92 1.93 1.94 1.95 1.94 1.92 1.83 1.74 1.65 1.57
0.78 0.79 0.81 0.84 0.86 0.88 0.89 0.88 0.88 0.90 0.91 0.90 0.89 0.89 0.90 0.92 0.94 1.00 0.96 0.97 1.01 1.18 1.30 1.22 1.18 1.17 1.26 1.39 1.46 1.50 1.54 1.61 1.67 1.71 1.71 1.69 1.65 1.62 1.61 1.61 1.61 1.61 1.61 1.65 1.68 1.70 1.74 1.78 1.80 1.78 1.77 1.75 1.81 1.85 1.89 1.92 1.82 1.76 1.74 1.76 1.80 1.81 1.81 1.88 1.93 1.95 1.96 1.95 1.93 1.92 1.94 1.96 1.94 1.92 1.94 1.98 1.99 2.01 1.95 1.81 1.70 1.75 1.66 1.53 1.53
0.85 0.85 0.85 0.88 0.89 0.91 0.92 0.93 0.92 0.92 0.93 0.92 0.93 0.94 0.95 0.97 0.97 1.00 0.96 0.93 0.93 1.00 1.13 1.19 1.22 1.22 1.17 1.23 1.35 1.38 1.47 1.57 1.61 1.65 1.69 1.71 1.68 1.62 1.61 1.58 1.57 1.60 1.62 1.67 1.69 1.71 1.72 1.76 1.79 1.76 1.72 1.73 1.83 1.88 1.91 1.92 1.83 1.75 1.71 1.71 1.72 1.71 1.72 1.79 1.86 1.91 1.93 1.90 1.92 1.97 2.00 2.02 2.03 2.03 2.03 2.02 2.00 1.99 1.85 1.64 1.67 1.72 1.60 1.57 1.48
0.89 0.88 0.88 0.91 0.94 0.94 0.94 0.95 0.95 0.94 0.94 0.95 0.97 0.96 0.97 0.98 0.99 1.02 1.01 1.00 0.97 0.96 0.99 1.02 1.05 1.08 1.11 1.15 1.26 1.32 1.37 1.48 1.56 1.57 1.62 1.66 1.67 1.65 1.62 1.59 1.56 1.58 1.61 1.62 1.67 1.69 1.71 1.74 1.75 1.76 1.74 1.73 1.75 1.79 1.83 1.87 1.81 1.78 1.77 1.72 1.66 1.63 1.66 1.76 1.80 1.79 1.78 1.79 1.81 1.86 1.88 1.94 1.97 1.95 1.95 1.98 1.99 1.98 1.92 1.82 1.80 1.71 1.56 1.54 1.55
0.95 0.97 0.97 0.97 0.98 0.98 0.97 0.95 0.95 0.95 0.95 0.97 0.99 0.99 1.01 1.02 1.03 1.02 1.02 1.03 1.02 1.00 0.98 0.98 0.96 0.95 0.96 1.00 1.09 1.21 1.27 1.35 1.47 1.52 1.55 1.60 1.65 1.64 1.62 1.55 1.49 1.52 1.58 1.59 1.58 1.62 1.66 1.68 1.71 1.73 1.73 1.72 1.71 1.74 1.77 1.79 1.74 1.75 1.74 1.66 1.60 1.53 1.69 1.76 1.75 1.69 1.66 1.68 1.68 1.73 1.75 1.84 1.90 1.94 1.94 1.93 1.93 1.92 1.87 1.85 1.82 1.77 1.63 1.53 1.49
1.03 1.02 1.03 1.02 0.99 0.97 0.97 0.96 0.93 0.94 0.97 0.97 1.00 1.01 1.03 1.02 1.03 1.03 1.02 1.03 1.03 1.02 1.00 0.99 0.99 0.97 0.97 0.97 0.98 1.06 1.18 1.24 1.33 1.42 1.48 1.53 1.59 1.60 1.56 1.52 1.51 1.50 1.51 1.54 1.58 1.58 1.61 1.64 1.67 1.70 1.72 1.73 1.76 1.79 1.80 1.79 1.79 1.80 1.77 1.67 1.65 1.69 1.77 1.70 1.67 1.70 1.68 1.69 1.69 1.71 1.75 1.83 1.88 1.90 1.88 1.86 1.84 1.84 1.83 1.80 1.78 1.72 1.58 1.44 1.36
1.07 1.06 1.04 1.02 0.99 0.97 0.95 0.95 0.96 0.94 0.95 0.97 0.96 0.97 1.02 1.04 1.03 1.03 1.04 1.03 1.01 1.00 1.00 1.00 1.00 0.99 1.00 0.99 0.97 0.98 1.10 1.21 1.26 1.34 1.41 1.47 1.54 1.58 1.57 1.55 1.55 1.51 1.47 1.49 1.55 1.60 1.62 1.65 1.66 1.69 1.73 1.74 1.76 1.76 1.75 1.74 1.75 1.78 1.76 1.75 1.76 1.77 1.74 1.74 1.75 1.76 1.73 1.70 1.70 1.73 1.77 1.77 1.73 1.70 1.68 1.65 1.63 1.61 1.60 1.60 1.60 1.57 1.54 1.49 1.39
1.09 1.06 1.03 0.99 0.97 0.96 0.96 0.95 0.95 0.96 0.94 0.95 0.95 0.93 0.97 1.00 1.02 1.04 1.02 1.00 0.99 0.98 0.97 0.97 0.97 0.97 0.97 0.98 1.00 1.00 1.05 1.13 1.21 1.26 1.33 1.40 1.48 1.55 1.58 1.60 1.65 1.66 1.55 1.47 1.50 1.57 1.66 1.68 1.71 1.75 1.77 1.77 1.77 1.75 1.71 1.70 1.69 1.67 1.69 1.73 1.74 1.77 1.78 1.76 1.74 1.70 1.65 1.64 1.63 1.60 1.61 1.61 1.52 1.41 1.37 1.36 1.40 1.44 1.45 1.47 1.49 1.49 1.46 1.46 1.46
1.07 1.04 1.01 1.00 0.99 0.98 0.97 0.96 0.96 0.97 0.97 0.98 0.97 0.95 0.95 0.98 1.01 1.03 1.03 1.01 0.99 0.97 0.97 0.97 0.97 0.95 0.93 0.92 0.95 1.00 1.04 1.06 1.11 1.19 1.27 1.34 1.40 1.48 1.55 1.60 1.64 1.66 1.64 1.58 1.60 1.64 1.66 1.67 1.69 1.72 1.76 1.79 1.80 1.78 1.75 1.72 1.67 1.67 1.69 1.71 1.74 1.76 1.76 1.74 1.69 1.62 1.59 1.54 1.46 1.40 1.38 1.40 1.35 1.28 1.27 1.31 1.34 1.37 1.39 1.40 1.38 1.37 1.32 1.27 1.25
1.03 1.01 1.00 1.00 0.99 0.98 0.98 0.97 0.98 1.00 1.02 1.02 0.98 0.96 0.95 0.98 0.97 1.00 1.01 1.01 1.02 1.00 0.99 0.99 0.95 0.93 0.93 0.92 0.93 0.97 1.01 1.03 1.05 1.12 1.21 1.29 1.33 1.39 1.49 1.57 1.62 1.66 1.61 1.61 1.64 1.65 1.67 1.70 1.72 1.71 1.72 1.74 1.78 1.77 1.72 1.70 1.68 1.68 1.71 1.71 1.74 1.74 1.71 1.69 1.64 1.62 1.53 1.44 1.37 1.35 1.34 1.30 1.27 1.25 1.29 1.30 1.30 1.31 1.26 1.23 1.24 1.23 1.23 1.22 1.19
1.01 1.00 1.01 1.00 1.00 1.00 0.97 0.98 1.01 1.04 1.06 1.07 1.05 1.03 1.00 0.99 0.98 0.99 1.00 1.01 1.02 1.02 1.01 1.00 0.99 0.97 0.94 0.93 0.92 0.93 0.98 1.00 1.00 1.06 1.16 1.23 1.28 1.32 1.39 1.49 1.57 1.63 1.65 1.63 1.61 1.60 1.59 1.60 1.64 1.68 1.70 1.72 1.75 1.75 1.74 1.72 1.69 1.70 1.71 1.73 1.73 1.72 1.72 1.68 1.63 1.55 1.44 1.37 1.31 1.23 1.18 1.20 1.19 1.21 1.25 1.25 1.19 1.14 1.16 1.14 1.15 1.15 1.20 1.19 1.15
1.01 1.01 1.00 1.01 1.01 1.01 1.00 1.00 1.03 1.06 1.07 1.07 1.07 1.06 1.05 1.03 1.02 1.01 1.03 1.03 1.04 1.04 1.03 1.01 0.99 0.99 0.97 0.96 0.94 0.93 0.94 0.96 0.99 1.02 1.10 1.17 1.22 1.28 1.33 1.37 1.45 1.49 1.49 1.49 1.52 1.53 1.55 1.58 1.61 1.64 1.64 1.68 1.70 1.69 1.65 1.61 1.60 1.62 1.65 1.67 1.71 1.72 1.71 1.66 1.57 1.47 1.37 1.30 1.24 1.19 1.18 1.20 1.24 1.21 1.16 1.15 1.12 1.15 1.23 1.24 1.22 1.22 1.25 1.24 1.18
1.00 0.99 1.01 1.02 1.01 1.02 1.01 1.04 1.05 1.05 1.06 1.06 1.04 1.04 1.06 1.07 1.06 1.05 1.06 1.07 1.06 1.05 1.05 1.03 1.00 1.00 0.99 1.00 0.99 0.96 0.92 0.93 0.96 1.00 1.06 1.12 1.18 1.26 1.31 1.32 1.35 1.40 1.41 1.46 1.55 1.61 1.60 1.63 1.64 1.61 1.63 1.63 1.63 1.62 1.62 1.65 1.66 1.63 1.63 1.69 1.70 1.74 1.71 1.70 1.60 1.46 1.34 1.28 1.24 1.22 1.20 1.22 1.18 1.18 1.21 1.20 1.21 1.25 1.33 1.31 1.26 1.25 1.27 1.25 1.13
1.00 1.01 1.02 1.02 1.01 1.03 1.04 1.05 1.06 1.06 1.06 1.07 1.09 1.11 1.09 1.09 1.10 1.12 1.19 1.22 1.19 1.15 1.12 1.10 1.09 1.09 1.09 1.06 1.01 0.96 0.94 0.91 0.96 1.09 1.13 1.16 1.16 1.21 1.28 1.31 1.34 1.38 1.43 1.43 1.49 1.63 1.58 1.53 1.52 1.55 1.54 1.51 1.52 1.53 1.57 1.60 1.62 1.64 1.67 1.69 1.71 1.73 1.65 1.57 1.39 1.29 1.24 1.22 1.18 1.21 1.23 1.25 1.24 1.28 1.29 1.27 1.28 1.32 1.41 1.38 1.39 1.35 1.35 1.33 1.20
0.99 1.00 1.02 1.02 1.03 1.04 1.05 1.06 1.08 1.09 1.09 1.08 1.07 1.09 1.18 1.22 1.22 1.18 1.17 1.24 1.27 1.27 1.26 1.18 1.17 1.16 1.12 1.13 1.14 1.06 1.00 1.02 1.08 1.10 1.12 1.13 1.15 1.20 1.30 1.36 1.37 1.38 1.39 1.42 1.46 1.50 1.52 1.47 1.46 1.43 1.46 1.49 1.47 1.46 1.51 1.59 1.65 1.66 1.68 1.66 1.59 1.53 1.47 1.41 1.33 1.27 1.32 1.36 1.34 1.31 1.29 1.31 1.29 1.30 1.30 1.29 1.33 1.39 1.46 1.45 1.41 1.44 1.37 1.31 1.25
1.00 1.00 1.01 1.02 1.05 1.07 1.07 1.08 1.11 1.12 1.12 1.12 1.11 1.08 1.08 1.15 1.23 1.27 1.26 1.26 1.28 1.28 1.28 1.26 1.23 1.21 1.18 1.13 1.16 1.19 1.17 1.14 1.12 1.11 1.10 1.09 1.09 1.11 1.15 1.21 1.30 1.36 1.40 1.40 1.36 1.31 1.30 1.37 1.40 1.44 1.46 1.50 1.52 1.55 1.60 1.64 1.62 1.61 1.57 1.52 1.45 1.36 1.34 1.36 1.40 1.49 1.48 1.44 1.41 1.40 1.39 1.36 1.32 1.34 1.32 1.33 1.34 1.37 1.42 1.46 1.46 1.45 1.40 1.36 1.31
1.01 1.00 1.02 1.04 1.08 1.09 1.09 1.09 1.11 1.11 1.12 1.14 1.14 1.12 1.11 1.08 1.11 1.22 1.29 1.28 1.29 1.30 1.29 1.28 1.27 1.25 1.25 1.24 1.20 1.18 1.19 1.19 1.17 1.15 1.13 1.11 1.10 1.09 1.09 1.12 1.18 1.25 1.34 1.38 1.30 1.29 1.31 1.27 1.29 1.38 1.47 1.51 1.53 1.54 1.57 1.57 1.54 1.55 1.53 1.43 1.34 1.33 1.33 1.35 1.47 1.55 1.53 1.47 1.43 1.41 1.41 1.40 1.40 1.40 1.39 1.38 1.38 1.39 1.41 1.44 1.45 1.44 1.43 1.42 1.38
1.01 1.02 1.05 1.07 1.09 1.07 1.06 1.07 1.10 1.12 1.12 1.13 1.15 1.16 1.13 1.10 1.06 1.06 1.18 1.30 1.32 1.31 1.30 1.30 1.30 1.29 1.29 1.29 1.29 1.24 1.21 1.22 1.21 1.17 1.14 1.12 1.12 1.12 1.11 1.10 1.11 1.16 1.23 1.22 1.20 1.22 1.28 1.29 1.27 1.32 1.40 1.45 1.52 1.56 1.59 1.59 1.60 1.59 1.55 1.51 1.46 1.43 1.46 1.49 1.54 1.55 1.53 1.48 1.48 1.46 1.47 1.47 1.46 1.43 1.41 1.41 1.40 1.38 1.43 1.44 1.46 1.47 1.46 1.41 1.38
1.03 1.05 1.07 1.09 1.08 1.04 1.04 1.06 1.09 1.11 1.14 1.15 1.15 1.12 1.10 1.08 1.06 1.08 1.09 1.15 1.23 1.29 1.32 1.33 1.33 1.32 1.32 1.32 1.30 1.30 1.28 1.25 1.22 1.19 1.16 1.14 1.14 1.15 1.13 1.12 1.12 1.13 1.13 1.11 1.12 1.11 1.17 1.23 1.28 1.30 1.33 1.38 1.42 1.46 1.48 1.52 1.57 1.59 1.58 1.56 1.53 1.56 1.62 1.67 1.63 1.59 1.57 1.55 1.55 1.53 1.53 1.53 1.51 1.45 1.41 1.43 1.47 1.47 1.43 1.42 1.44 1.43 1.41 1.39 1.34
1.00 1.03 1.06 1.08 1.08 1.03 1.03 1.06 1.09 1.09 1.10 1.06 1.05 1.04 1.04 1.05 1.07 1.08 1.10 1.13 1.17 1.19 1.21 1.26 1.33 1.35 1.32 1.31 1.31 1.31 1.30 1.30 1.28 1.24 1.20 1.17 1.16 1.16 1.14 1.09 1.03 1.05 1.07 1.09 1.10 1.09 1.08 1.13 1.20 1.28 1.34 1.35 1.38 1.41 1.42 1.45 1.48 1.51 1.53 1.54 1.57 1.61 1.62 1.60 1.58 1.61 1.57 1.60 1.66 1.62 1.59 1.56 1.52 1.49 1.47 1.45 1.45 1.43 1.41 1.44 1.46 1.47 1.43 1.41 1.41
0.94 0.96 0.98 1.00 1.01 0.98 0.99 1.03 1.06 1.04 1.02 0.99 1.00 1.00 1.01 1.01 1.02 1.06 1.11 1.17 1.20 1.21 1.24 1.29 1.31 1.34 1.36 1.34 1.33 1.34 1.34 1.34 1.32 1.29 1.25 1.22 1.19 1.17 1.08 1.07 1.06 1.06 1.06 1.09 1.10 1.12 1.13 1.13 1.15 1.22 1.30 1.37 1.43 1.45 1.46 1.47 1.50 1.53 1.58 1.60 1.59 1.59 1.55 1.53 1.52 1.48 1.49 1.57 1.63 1.65 1.60 1.54 1.49 1.49 1.51 1.51 1.48 1.47 1.50 1.52 1.54 1.56 1.55 1.51 1.48
0.90 0.91 0.91 0.94 0.93 0.93 0.95 0.98 0.99 0.98 0.96 0.95 0.95 0.95 0.96 0.97 0.99 1.03 1.08 1.12 1.18 1.23 1.24 1.26 1.28 1.27 1.27 1.27 1.28 1.31 1.35 1.36 1.35 1.34 1.30 1.26 1.23 1.19 1.14 1.14 1.12 1.13 1.12 1.12 1.13 1.13 1.13 1.15 1.18 1.20 1.24 1.29 1.36 1.43 1.49 1.51 1.55 1.57 1.56 1.54 1.52 1.50 1.50 1.50 1.50 1.49 1.52 1.58 1.63 1.62 1.58 1.55 1.55 1.53 1.48 1.42 1.44 1.52 1.52 1.52 1.58 1.60 1.62 1.58 1.58
0.86 0.86 0.88 0.89 0.90 0.90 0.91 0.92 0.93 0.94 0.93 0.94 0.94 0.94 0.94 0.92 0.92 0.96 1.00 1.05 1.12 1.18 1.20 1.22 1.22 1.19 1.16 1.20 1.31 1.31 1.32 1.37 1.36 1.33 1.31 1.27 1.23 1.19 1.18 1.17 1.18 1.17 1.17 1.18 1.19 1.18 1.17 1.20 1.22 1.20 1.19 1.23 1.27 1.34 1.40 1.44 1.48 1.51 1.52 1.51 1.51 1.51 1.53 1.53 1.53 1.53 1.54 1.53 1.52 1.51 1.49 1.48 1.51 1.54 1.54 1.48 1.45 1.43 1.45 1.52 1.58 1.54 1.54 1.56 1.50
0.85 0.87 0.88 0.88 0.88 0.86 0.88 0.87 0.87 0.88 0.89 0.91 0.90 0.89 0.88 0.87 0.87 0.89 0.93 0.99 1.05 1.10 1.15 1.18 1.20 1.20 1.20 1.23 1.25 1.31 1.32 1.27 1.23 1.21 1.25 1.28 1.28 1.26 1.21 1.19 1.19 1.21 1.24 1.25 1.25 1.24 1.22 1.22 1.24 1.25 1.25 1.23 1.23 1.26 1.30 1.35 1.43 1.46 1.48 1.47 1.47 1.47 1.47 1.46 1.45 1.47 1.47 1.46 1.45 1.44 1.44 1.43 1.44 1.48 1.50 1.48 1.47 1.53 1.57 1.58 1.56 1.53 1.46 1.44 1.45
0.78 0.78 0.80 0.82 0.83 0.85 0.86 0.85 0.85 0.84 0.84 0.85 0.85 0.87 0.86 0.85 0.84 0.84 0.86 0.90 0.96 1.02 1.08 1.12 1.14 1.17 1.21 1.23 1.22 1.25 1.21 1.19 1.19 1.19 1.20 1.21 1.21 1.21 1.17 1.14 1.14 1.15 1.18 1.22 1.26 1.27 1.26 1.25 1.27 1.27 1.27 1.27 1.25 1.22 1.23 1.25 1.29 1.35 1.39 1.40 1.39 1.39 1.42 1.42 1.41 1.41 1.42 1.45 1.43 1.42 1.41 1.39 1.39 1.43 1.46 1.49 1.50 1.52 1.52 1.53 1.54 1.52 1.48 1.44 1.43
0.64 0.64 0.63 0.67 0.69 0.71 0.74 0.75 0.77 0.79 0.82 0.83 0.83 0.85 0.85 0.85 0.85 0.85 0.84 0.85 0.89 0.95 1.02 1.08 1.13 1.18 1.21 1.22 1.22 1.22 1.20 1.18 1.19 1.19 1.19 1.20 1.22 1.21 1.20 1.18 1.17 1.18 1.20 1.22 1.27 1.31 1.30 1.25 1.23 1.22 1.22 1.23 1.23 1.21 1.19 1.20 1.20 1.21 1.22 1.24 1.26 1.28 1.32 1.35 1.36 1.36 1.37 1.40 1.41 1.42 1.44 1.45 1.44 1.45 1.45 1.52 1.59 1.59 1.57 1.56 1.52 1.47 1.44 1.41 1.39
0.54 0.54 0.52 0.57 0.63 0.65 0.66 0.68 0.71 0.74 0.76 0.79 0.81 0.83 0.83 0.85 0.85 0.85 0.84 0.83 0.84 0.88 0.94 1.02 1.10 1.17 1.19 1.22 1.23 1.24 1.24 1.22 1.20 1.18 1.19 1.18 1.16 1.16 1.19 1.20 1.21 1.19 1.19 1.20 1.22 1.23 1.23 1.22 1.21 1.20 1.18 1.19 1.21 1.21 1.22 1.21 1.21 1.22 1.21 1.21 1.21 1.23 1.26 1.28 1.31 1.32 1.33 1.36 1.39 1.40 1.40 1.42 1.45 1.49 1.52 1.54 1.55 1.56 1.54 1.50 1.47 1.44 1.41 1.39 1.41
0.54 0.52 0.50 0.51 0.56 0.59 0.61 0.64 0.68 0.69 0.73 0.75 0.78 0.82 0.84 0.84 0.84 0.85 0.84 0.85 0.84 0.84 0.86 0.92 1.02 1.11 1.14 1.19 1.21 1.22 1.23 1.23 1.22 1.20 1.19 1.19 1.21 1.21 1.19 1.16 1.20 1.22 1.23 1.25 1.26 1.24 1.24 1.23 1.22 1.21 1.19 1.18 1.20 1.20 1.18 1.20 1.24 1.26 1.27 1.26 1.25 1.23 1.22 1.23 1.24 1.25 1.28 1.31 1.35 1.38 1.40 1.42 1.45 1.47 1.50 1.52 1.54 1.54 1.52 1.49 1.47 1.46 1.45 1.45 1.45
0.52 0.50 0.49 0.48 0.50 0.53 0.56 0.58 0.61 0.64 0.69 0.73 0.76 0.80 0.82 0.83 0.84 0.84 0.85 0.85 0.85 0.85 0.85 0.86 0.92 1.01 1.08 1.13 1.17 1.18 1.17 1.18 1.19 1.19 1.19 1.18 1.20 1.23 1.22 1.18 1.17 1.18 1.21 1.23 1.25 1.25 1.21 1.15 1.15 1.16 1.15 1.14 1.17 1.22 1.17 1.22 1.27 1.27 1.26 1.26 1.25 1.24 1.23 1.22 1.22 1.22 1.24 1.27 1.31 1.34 1.36 1.38 1.40 1.41 1.43 1.47 1.50 1.48 1.47 1.47 1.44 1.41 1.37 1.36 1.38
0.50 0.48 0.46 0.45 0.45 0.46 0.47 0.51 0.55 0.58 0.64 0.69 0.72 0.75 0.79 0.81 0.83 0.84 0.84 0.85 0.86 0.86 0.84 0.85 0.86 0.90 0.97 1.05 1.09 1.10 1.11 1.12 1.14 1.17 1.18 1.18 1.17 1.17 1.19 1.22 1.24 1.23 1.21 1.23 1.24 1.23 1.22 1.18 1.20 1.22 1.21 1.18 1.21 1.25 1.27 1.29 1.30 1.29 1.26 1.22 1.20 1.19 1.19 1.20 1.21 1.22 1.21 1.19 1.19 1.22 1.25 1.26 1.28 1.30 1.32 1.36 1.41 1.43 1.43 1.43 1.43 1.41 1.36 1.33 1.30
0.49 0.48 0.46 0.45 0.44 0.45 0.46 0.47 0.51 0.53 0.56 0.62 0.67 0.71 0.75 0.79 0.81 0.83 0.84 0.85 0.86 0.85 0.83 0.83 0.84 0.85 0.87 0.91 0.99 1.04 1.07 1.09 1.10 1.11 1.13 1.14 1.14 1.16 1.19 1.20 1.21 1.22 1.21 1.21 1.22 1.20 1.23 1.20 1.24 1.21 1.18 1.18 1.20 1.20 1.22 1.24 1.25 1.24 1.23 1.21 1.18 1.16 1.16 1.17 1.18 1.19 1.18 1.16 1.13 1.13 1.15 1.16 1.17 1.18 1.20 1.21 1.23 1.27 1.29 1.33 1.35 1.35 1.31 1.29 1.28
0.49 0.49 0.48 0.46 0.45 0.45 0.46 0.47 0.48 0.50 0.52 0.57 0.65 0.70 0.71 0.75 0.79 0.81 0.82 0.83 0.85 0.86 0.84 0.84 0.84 0.84 0.84 0.85 0.87 0.92 0.99 1.03 1.06 1.07 1.07 1.08 1.10 1.12 1.12 1.15 1.16 1.16 1.18 1.19 1.19 1.20 1.22 1.22 1.19 1.19 1.18 1.18 1.19 1.18 1.18 1.17 1.16 1.16 1.15 1.14 1.13 1.12 1.11 1.11 1.11 1.11 1.11 1.10 1.09 1.06 1.05 1.06 1.06 1.07 1.08 1.09 1.10 1.12 1.14 1.17 1.21 1.23 1.24 1.24 1.21
0.49 0.48 0.47 0.46 0.45 0.44 0.43 0.44 0.45 0.48 0.49 0.53 0.61 0.66 0.68 0.71 0.74 0.76 0.79 0.81 0.83 0.85 0.86 0.86 0.85 0.85 0.85 0.84 0.85 0.86 0.90 0.94 0.98 1.03 1.05 1.06 1.07 1.08 1.08 1.09 1.09 1.11 1.13 1.13 1.14 1.14 1.16 1.18 1.19 1.17 1.12 1.11 1.12 1.13 1.15 1.15 1.14 1.13 1.11 1.10 1.09 1.08 1.08 1.08 1.08 1.07 1.08 1.07 1.07 1.04 1.02 1.01 1.01 1.01 1.01 1.00 1.00 1.01 1.00 1.01 1.06 1.11 1.14 1.16 1.17
0.47 0.45 0.44 0.44 0.44 0.43 0.42 0.43 0.44 0.45 0.47 0.50 0.54 0.59 0.63 0.64 0.67 0.71 0.75 0.76 0.77 0.79 0.81 0.83 0.83 0.84 0.84 0.85 0.84 0.84 0.84 0.86 0.89 0.92 0.96 0.99 1.01 1.03 1.03 1.02 1.02 1.02 1.04 1.06 1.07 1.08 1.10 1.12 1.14 1.15 1.13 1.10 1.11 1.10 1.11 1.12 1.12 1.11 1.10 1.09 1.09 1.08 1.07 1.07 1.07 1.06 1.06 1.06 1.06 1.04 1.02 1.00 0.99 0.99 0.99 0.99 0.99 0.99 0.98 0.98 0.99 1.00 1.02 1.06 1.07
0.45 0.45 0.45 0.45 0.45 0.44 0.44 0.44 0.45 0.45 0.47 0.49 0.51 0.52 0.56 0.60 0.62 0.63 0.67 0.69 0.70 0.71 0.73 0.74 0.75 0.75 0.75 0.75 0.77 0.79 0.78 0.78 0.79 0.81 0.85 0.89 0.92 0.95 0.97 0.99 0.98 0.98 0.98 0.99 0.99 0.99 1.00 1.03 1.06 1.08 1.09 1.08 1.07 1.07 1.08 1.09 1.08 1.08 1.08 1.07 1.06 1.06 1.06 1.06 1.06 1.07 1.06 1.05 1.05 1.04 1.02 1.01 0.99 0.99 0.99 0.99 0.99 0.99 0.98 0.99 0.99 1.00 0.99 0.97 0.98
0.45 0.45 0.45 0.46 0.46 0.45 0.44 0.44 0.44 0.45 0.46 0.47 0.48 0.49 0.51 0.54 0.59 0.63 0.63 0.62 0.62 0.65 0.65 0.66 0.66 0.68 0.69 0.70 0.71 0.71 0.72 0.72 0.72 0.74 0.75 0.77 0.80 0.83 0.86 0.89 0.91 0.92 0.92 0.93 0.95 0.97 0.98 0.98 0.98 0.98 0.99 1.01 1.01 1.01 1.01 1.02 1.03 1.03 1.03 1.03 1.03 1.03 1.01 1.01 1.02 1.03 1.04 1.04 1.04 1.03 1.01 0.99 0.98 0.97 0.98 0.99 1.00 0.99 1.00 1.00 1.00 1.00 0.99 0.98 0.98
Wind_Speed
12 11 11 11 11 11 11 11 11 11 10 10 10 10 10 10 10 10 10 10 10 9 9 10 11 12 14 16 17 18 18 17 18 19 21 22 23 25 25 26 27 27 27 27 27 26 26 25 26 26 25 25 24 24 23 23 22 21 21 21 21 20 20 20 20 19 19 18 18 17 17 17 17 17 17 17 17 18 18 18 18 18 18 17 17
13 12 12 12 13 13 13 13 12 12 12 12 12 11 10 11 11 11 11 11 10 10 10 10 10 11 12 14 16 17 18 18 18 18 20 22 23 24 26 27 27 28 28 27 28 27 27 26 26 26 26 26 25 24 24 23 23 23 23 22 22 21 21 22 22 21 20 19 19 19 18 18 18 18 18 18 18 18 18 19 19 19 19 18 18
13 13 13 13 14 15 14 14 14 15 15 15 15 14 13 12 12 12 11 11 11 11 11 10 10 10 11 13 15 16 18 18 19 18 19 21 23 24 26 27 28 28 28 28 29 28 28 27 27 26 26 26 27 26 25 24 24 24 24 23 23 23 23 23 23 22 21 20 20 20 20 19 19 19 19 19 19 19 19 19 19 19 19 20 19
14 14 14 14 16 15 15 15 16 16 17 17 17 17 16 14 13 12 12 12 12 12 12 11 11 11 11 12 13 16 17 19 19 19 19 20 22 23 26 27 28 28 29 29 29 29 28 28 27 27 26 26 27 27 26 26 25 25 24 24 24 23 23 23 23 23 22 22 21 21 21 21 20 20 20 20 20 20 20 20 20 20 20 21 21
15 15 15 16 17 16 15 15 16 17 17 17 18 18 18 16 14 13 13 13 13 13 13 12 12 12 12 12 13 15 17 18 20 20 20 20 21 23 25 27 28 29 29 30 30 30 29 28 28 28 28 27 27 27 27 27 26 25 25 24 24 24 23 23 23 23 23 23 23 22 22 21 21 20 20 21 21 21 21 20 21 20 21 21 21
16 17 17 17 17 18 17 16 16 17 17 18 18 18 18 17 17 15 14 14 14 14 14 14 13 13 14 14 14 15 16 17 19 20 21 21 22 22 24 26 28 29 29 30 31 31 30 29 29 29 29 28 28 28 28 28 27 27 26 26 25 25 24 24 23 24 24 24 24 24 23 22 22 22 21 21 21 21 21 21 21 21 21 21 21
17 18 18 18 18 19 18 18 18 17 18 18 18 18 18 18 18 17 15 15 15 15 15 15 15 14 14 15 15 15 16 16 17 18 20 22 23 23 24 25 27 28 29 30 31 31 31 31 30 30 29 29 29 29 29 28 28 28 28 27 27 26 25 25 24 24 25 25 25 25 24 24 23 23 22 21 21 21 22 22 22 22 22 22 22
18 19 19 19 20 20 20 20 19 19 19 18 18 18 18 18 18 18 17 16 16 16 16 16 16 16 15 15 15 15 15 16 17 17 18 20 22 24 24 25 26 27 29 30 31 32 32 32 31 31 30 30 30 30 29 29 29 29 29 28 28 28 27 27 26 25 25 25 25 25 25 25 25 24 23 22 22 22 22 23 23 23 23 23 23
19 20 20 20 20 20 21 21 21 20 20 19 19 19 18 18 18 18 18 17 17 17 17 17 17 16 16 16 15 15 16 16 17 17 17 18 20 22 24 25 26 27 28 29 30 31 32 33 33 33 32 32 31 31 30 30 30 30 30 29 29 29 28 28 27 27 26 26 26 25 25 26 25 25 24 24 23 24 24 24 24 25 24 25 25
20 21 21 21 21 21 21 22 22 22 21 21 20 20 20 19 19 18 18 18 18 18 18 18 18 17 17 16 16 16 17 17 18 19 19 19 19 20 23 25 26 27 27 28 30 31 32 32 33 34 34 34 33 32 32 32 32 31 31 30 30 30 30 29 29 28 27 27 26 25 25 26 26 26 25 25 25 25 25 25 25 25 25 25 25
22 22 22 22 22 22 22 22 23 23 23 22 22 21 21 20 20 19 19 18 19 19 19 19 19 19 19 18 18 18 18 18 19 19 20 20 20 20 21 23 25 26 27 28 29 30 31 32 33 34 34 34 34 34 34 34 33 33 33 32 32 31 31 31 30 29 28 28 27 26 26 26 26 26 26 26 26 26 26 26 26 26 25 25 25
24 24 24 23 23 22 22 23 24 24 24 23 23 23 22 22 21 21 20 20 19 19 20 20 19 19 19 19 19 19 19 19 19 20 20 21 21 21 21 21 23 25 27 28 29 29 31 32 33 33 34 34 34 33 34 34 34 34 34 34 34 33 33 32 32 31 30 29 28 28 27 27 27 27 27 27 26 27 27 27 27 27 27 27 26
26 25 24 24 23 23 23 23 24 24 24 24 24 24 24 23 22 22 22 21 21 20 21 21 20 20 19 20 20 20 20 20 20 20 20 21 21 21 21 22 23 23 25 27 29 30 31 32 32 33 34 34 34 34 33 34 34 34 35 35 34 34 34 34 33 33 32 31 30 30 29 28 28 28 27 27 27 27 27 28 28 28 28 28 28
26 25 24 24 24 23 24 24 24 24 24 24 24 24 24 24 24 23 23 23 22 22 22 22 21 21 20 20 21 21 21 21 21 21 21 21 22 22 22 22 23 23 24 25 27 29 30 31 32 33 33 34 34 34 34 34 34 34 34 34 34 34 34 35 34 34 34 33 32 32 31 30 30 29 29 28 28 28 28 29 29 29 30 30 30
26 25 24 24 24 24 24 24 24 24 24 23 23 23 24 24 24 24 24 24 24 24 24 23 23 22 22 22 22 22 22 22 22 22 22 22 22 22 22 22 23 23 24 25 25 27 28 30 31 32 32 33 33 34 34 34 34 34 35 35 35 35 35 35 35 35 35 34 34 34 33 33 32 31 31 31 31 31 31 31 31 31 31 32 32
25 25 24 24 24 24 24 24 24 24 24 23 23 24 24 24 24 24 24 25 25 25 25 25 24 24 23 23 23 23 23 23 23 23 23 22 22 22 22 23 23 23 24 25 25 26 27 28 29 30 31 32 32 33 34 33 34 34 35 35 36 36 35 35 35 35 35 35 35 35 35 35 34 34 33 33 33 32 32 32 32 32 33 33 33
25 25 24 24 24 24 24 24 24 24 24 24 24 24 24 24 24 24 25 25 25 25 25 25 25 25 25 25 24 25 24 24 24 24 23 23 22 22 22 23 23 24 24 24 25 26 26 27 28 29 29 30 31 32 33 33 33 33 34 34 35 35 35 35 35 36 36 35 35 35 35 35 34 34 34 34 33 33 33 33 33 33 33 33 33
25 25 24 24 24 24 24 24 24 24 24 24 24 24 24 24 24 25 25 26 26 26 26 25 25 25 26 26 26 26 26 25 25 25 25 24 24 23 23 23 23 23 24 24 24 25 26 27 28 28 28 29 30 31 31 32 32 32 33 33 33 35 35 34 35 35 35 35 35 34 34 34 34 34 34 34 33 33 33 33 33 33 33 33 33
25 25 25 25 25 25 25 25 25 25 25 25 24 24 25 25 25 25 26 26 27 27 27 27 27 27 26 26 27 27 27 26 26 26 26 26 25 25 24 24 24 24 24 24 25 25 26 27 27 28 29 29 30 30 30 31 31 31 32 32 32 33 33 33 33 34 34 34 34 33 34 34 34 34 34 34 34 33 33 34 34 34 34 33 33
26 25 25 25 25 25 25 25 25 26 26 26 26 26 26 25 26 26 26 26 27 27 28 28 28 28 27 27 27 28 27 27 27 27 27 27 26 26 25 25 25 25 24 24 24 25 25 26 27 27 28 29 30 30 30 31 30 30 31 32 32 31 31 32 33 33 33 34 34 34 34 33 33 33 33 33 33 33 33 33 33 33 34 34 33
26 26 26 26 25 26 26 26 26 26 26 26 26 26 26 26 26 26 27 27 27 28 28 29 29 29 28 27 27 28 28 28 28 28 28 28 27 27 27 27 26 26 25 25 24 25 25 25 26 27 27 28 29 29 30 30 31 30 31 31 31 31 31 31 32 32 32 32 32 32 32 32 32 32 32 32 32 32 33 33 33 33 33 33 34
27 27 26 26 26 26 26 26 27 27 27 27 27 27 27 27 27 27 27 27 28 28 29 29 29 29 29 28 28 28 28 29 29 29 28 28 28 28 29 29 28 28 27 26 25 25 25 25 25 26 26 27 28 28 29 29 30 30 30 31 31 31 31 31 30 31 31 30 30 31 31 31 31 31 31 32 32 32 32 32 32 33 33 33 34
27 27 27 27 27 27 27 27 27 27 27 28 28 28 28 27 27 27 27 28 28 29 29 29 30 30 30 29 29 28 29 29 29 30 29 29 29 29 29 30 30 29 28 27 27 27 27 26 26 26 27 27 28 28 28 28 28 29 29 30 31 31 30 30 30 30 30 30 30 30 30 30 31 31 31 31 31 32 32 32 32 32 32 33 33
28 28 27 27 27 27 27 27 27 27 28 28 28 28 29 29 28 28 28 28 29 29 29 29 30 30 30 30 30 29 29 29 30 30 30 30 29 29 30 30 31 31 30 29 28 28 28 27 27 27 27 27 28 28 28 28 28 28 29 30 30 29 29 29 29 29 29 29 29 29 29 30 30 30 30 30 31 31 31 31 31 32 32 32 32
28 27 27 27 27 27 27 27 27 27 28 28 28 29 29 29 29 29 29 30 30 30 29 30 30 30 30 31 30 30 30 30 30 30 31 31 30 30 30 30 31 31 31 30 30 30 29 29 29 29 29 28 28 28 28 28 28 29 29 30 29 29 28 28 28 28 28 28 28 28 29 29 29 29 29 30 30 30 30 31 31 31 31 31 31
27 27 27 27 27 27 27 27 27 27 27 28 28 28 28 29 29 30 30 30 30 30 30 30 30 30 31 31 31 31 30 30 31 31 31 31 31 30 30 30 31 31 31 31 32 32 31 31 30 30 30 29 29 29 28 28 29 29 30 30 29 29 29 29 29 28 28 28 28 28 29 28 28 29 29 29 29 29 29 30 29 29 29 29 29
27 27 27 27 27 27 27 27 27 27 27 27 27 27 28 28 29 29 30 30 30 30 30 30 30 30 31 31 31 31 31 31 31 31 31 31 31 31 31 30 30 30 30 31 31 32 32 32 32 31 31 30 29 29 29 29 29 29 29 30 30 30 30 29 29 29 28 28 28 28 28 28 28 28 28 28 28 28 28 28 28 28 28 28 28
27 27 27 27 27 27 27 27 27 27 27 27 27 27 27 28 28 28 28 28 29 29 29 29 29 30 30 30 30 31 31 31 31 31 32 31 31 31 31 31 31 30 29 29 30 31 31 32 32 31 31 30 29 29 29 29 29 29 29 30 29 29 28 29 29 28 28 28 28 28 28 28 28 28 28 28 28 28 28 28 28 28 28 27 27
26 27 27 27 27 27 27 27 26 26 26 26 26 26 26 26 27 27 27 27 28 28 28 28 29 29 29 29 29 30 30 31 31 31 32 32 31 32 32 32 32 31 30 29 29 29 29 29 29 30 30 30 30 29 29 29 29 30 30 30 30 29 29 29 29 29 29 29 29 29 29 28 28 28 28 28 28 28 28 28 28 28 28 28 28
26 26 26 26 26 26 25 25 25 25 25 25 25 25 25 25 26 26 26 27 27 28 28 28 28 28 28 28 28 29 30 31 31 32 32 33 33 33 33 33 33 32 31 30 30 29 28 27 28 29 30 30 30 29 29 30 30 29 29 29 29 29 30 30 30 30 30 30 30 29 29 28 28 28 28 28 29 29 29 29 29 28 28 28 28
24 24 24 24 24 24 24 24 23 23 23 23 23 23 24 24 25 25 25 26 26 26 26 27 27 27 27 27 28 28 29 30 31 31 32 32 33 33 33 33 33 33 32 32 31 31 30 29 28 28 29 30 31 30 30 30 30 29 28 28 28 28 29 29 30 30 30 30 30 30 29 29 29 29 29 29 30 29 29 29 29 29 29 29 29
22 22 22 22 22 22 22 22 21 21 21 21 22 22 23 23 24 24 25 25 25 25 25 25 25 25 26 26 26 27 27 28 29 29 30 31 31 32 32 33 33 33 33 33 32 32 31 31 30 29 28 29 30 31 31 31 31 30 29 29 29 29 29 29 30 30 30 31 30 31 31 31 31 31 31 31 31 30 30 30 30 30 30 30 30
21 21 21 21 20 20 20 20 19 19 20 20 21 21 22 22 23 24 24 24 24 23 23 24 24 24 24 25 25 25 26 27 27 28 28 29 30 31 31 32 33 33 33 33 33 33 33 32 32 31 30 30 29 29 30 31 31 31 31 31 30 30 30 30 30 30 31 32 32 32 32 32 32 32 32 32 32 32 32 31 31 31 31 31 30
20 19 19 19 19 19 19 19 18 18 19 19 20 20 20 21 22 22 22 22 22 22 21 22 22 22 23 23 24 24 25 25 26 26 27 27 28 29 30 30 31 32 33 33 34 34 34 33 33 33 32 32 30 29 29 30 31 32 32 33 33 32 32 32 32 32 32 32 33 34 34 34 33 33 33 33 33 33 33 33 32 32 31 31 31
18 18 18 19 18 18 18 18 18 18 18 19 19 19 20 20 21 21 21 20 20 20 20 20 20 21 21 22 22 22 23 23 24 24 25 26 26 27 28 28 29 30 32 32 33 34 34 34 34 34 33 33 32 31 31 30 30 31 32 32 33 33 33 34 33 33 32 32 33 33 33 33 33 33 33 33 33 33 33 33 32 32 32 32 32
17 17 17 18 18 18 18 18 17 18 18 19 19 19 19 19 20 19 19 19 18 18 18 19 19 19 20 20 20 21 21 22 22 23 24 25 25 25 26 27 28 29 30 31 32 32 33 34 34 35 34 34 34 33 33 32 31 31 31 31 32 32 33 33 33 32 32 32 32 32 32 33 33 32 32 33 33 32 32 32 32 32 32 32 32
17 16 16 17 17 17 18 17 17 18 18 18 18 19 18 18 18 18 18 18 17 17 17 17 17 17 18 18 19 20 20 20 21 21 22 23 23 24 25 26 26 27 28 29 30 31 32 33 34 34 35 35 35 34 34 34 33 32 32 32 32 32 32 32 32 32 32 32 32 32 32 33 33 32 32 32 32 32 32 32 33 32 32 31 31
16 16 16 17 17 17 17 17 18 18 18 17 18 18 18 18 18 18 18 17 17 16 16 16 16 16 16 17 18 18 18 19 19 20 20 21 22 23 24 24 25 26 26 27 28 29 30 31 32 33 34 34 35 35 35 34 34 34 33 33 32 32 32 31 31 32 32 32 32 32 32 33 33 32 32 32 32 32 32 32 32 32 32 31 31
16 16 17 17 17 17 17 17 17 18 18 17 18 18 18 18 18 18 18 17 16 16 16 16 15 15 15 16 16 16 16 16 16 17 17 18 19 20 21 22 23 24 24 25 26 27 28 29 30 31 32 33 33 34 34 34 34 34 34 33 33 32 32 32 31 31 31 31 32 32 32 32 33 33 33 33 33 32 32 32 32 32 32 32 32
17 17 18 18 17 17 17 17 17 18 18 18 18 18 18 18 17 17 17 16 16 15 15 15 15 15 14 14 14 13 13 13 13 14 14 15 16 17 17 18 19 20 21 22 23 24 26 27 27 28 29 30 30 31 32 33 33 33 33 33 33 32 32 32 31 31 30 30 30 31 31 31 32 32 33 33 33 33 33 32 32 32 32 32 32
17 17 18 18 17 17 17 17 18 18 18 18 18 17 17 17 17 17 16 16 15 15 15 15 15 14 14 14 13 12 11 11 11 12 12 13 13 14 15 16 17 18 19 19 20 21 21 22 23 24 25 26 26 27 28 29 30 31 31 31 31 31 31 30 30 30 30 29 29 29 29 29 30 30 31 32 32 32 32 32 31 32 32 32 32
17 18 18 18 18 17 17 18 18 18 18 18 18 17 17 17 16 16 16 16 16 15 15 14 14 14 13 13 13 11 10 10 10 10 10 11 11 12 12 13 14 15 16 17 17 18 18 19 20 20 22 23 24 25 26 26 27 27 28 28 29 29 29 28 28 28 28 28 28 28 28 28 28 29 29 30 30 30 31 31 31 31 31 31 32
18 18 18 18 18 18 18 18 19 19 19 19 19 18 18 17 16 16 16 16 16 15 14 14 14 13 13 13 13 11 10 10 10 9 9 9 10 10 10 11 12 13 14 14 15 15 16 17 17 18 19 20 22 23 24 25 25 25 25 25 26 26 27 27 27 28 28 28 27 28 28 28 28 29 29 29 29 30 30 30 30 30 31 31 31
18 18 18 18 18 18 18 18 19 19 20 20 19 19 18 17 17 16 16 16 16 15 14 14 14 13 13 13 12 12 11 11 10 10 9 9 9 10 10 10 11 12 12 13 14 14 15 15 15 16 16 17 18 19 20 21 22 22 23 24 24 25 25 26 27 27 28 28 28 28 28 28 29 29 29 29 30 30 30 30 30 30 30 31 31
18 18 18 18 18 18 18 19 19 20 20 20 20 19 19 18 17 16 16 16 15 15 14 14 14 13 13 12 12 11 11 11 11 10 10 9 9 10 10 9 10 10 11 12 13 14 15 15 14 14 14 15 16 17 18 19 20 21 22 23 24 24 25 25 26 27 28 28 29 29 29 29 30 30 30 31 31 31 31 31 31 31 31 31 31
17 18 18 18 18 19 19 19 19 20 20 20 20 19 19 19 18 17 16 16 15 15 15 14 13 13 13 12 12 11 11 11 10 10 10 10 10 10 10 10 10 10 11 11 12 13 14 14 15 15 15 15 16 17 17 18 19 20 21 22 23 24 25 26 26 27 27 28 29 30 30 31 31 31 32 32 32 33 33 33 32 32 32 32 32
18 18 19 18 18 19 19 19 20 20 21 21 20 20 19 19 18 17 17 16 16 15 15 14 13 13 12 12 12 12 11 11 11 10 10 10 10 10 11 11 11 11 12 12 13 13 13 14 15 15 16 16 17 17 18 18 19 20 21 22 23 24 25 26 26 27 27 28 29 29 30 31 31 32 32 33 33 33 34 34 34 33 33 33 33
19 19 19 18 18 18 19 20 20 20 21 21 20 19 19 18 18 17 16 16 15 15 15 15 14 13 12 12 12 12 12 11 11 11 11 11 11 11 11 12 12 13 13 13 13 14 14 14 15 16 16 17 17 18 18 19 19 20 21 21 22 23 24 25 26 26 27 27 28 29 30 30 31 31 31 32 33 33 34 34 34 34 34 34 34
19 19 18 17 17 17 18 19 19 19 20 20 20 19 19 18 18 17 16 15 15 15 15 14 14 13 13 12 12 12 12 12 11 11 12 12 12 12 12 12 12 13 14 14 14 15 15 16 16 16 17 17 18 18 18 18 19 19 20 21 22 23 23 24 25 26 27 27 28 28 29 30 30 31 31 32 32 33 34 34 35 35 35 35 35
18 18 17 16 16 16 17 18 18 19 19 19 19 19 19 19 18 18 17 16 15 15 14 14 14 13 12 12 12 12 12 12 11 12 12 12 13 13 13 13 13 13 14 14 15 15 16 16 17 17 18 18 18 18 19 19 19 19 20 21 22 23 23 24 25 25 26 27 27 27 28 29 30 31 31 32 33 33 34 34 35 35 35 35 35
18 18 17 16 16 16 17 18 18 19 19 19 19 19 19 19 19 19 17 16 15 14 14 14 14 13 12 12 11 11 11 11 12 12 12 12 13 13 14 14 14 15 15 15 15 15 16 17 17 18 18 18 18 18 19 19 20 20 20 20 21 22 23 24 24 25 26 26 26 26 27 28 29 30 31 31 31 32 33 34 34 35 35 35 35
Wind_Direction
326 323 317 311 305 301 298 294 289 286 284 284 285 286 288 289 293 296 298 299 295 291 286 278 268 259 252 247 243 241 239 238 239 237 235 233 232 230 229 228 227 227 227 228 228 228 228 227 227 227 228 228 229 230 231 231 232 232 232 232 233 236 237 236 237 240 241 242 243 243 244 244 243 242 241 241 240 239 239 240 241 242 243 245 246
322 320 316 312 302 295 294 295 296 294 291 286 281 279 281 284 287 290 293 296 295 291 287 282 275 266 258 250 245 242 241 240 241 240 237 235 233 232 230 229 228 227 228 229 228 227 228 229 228 229 229 229 230 231 232 232 232 233 233 234 236 239 240 239 239 240 243 244 243 244 245 246 245 244 243 244 244 243 243 243 243 243 244 246 246
320 317 315 312 304 299 299 303 304 304 302 298 290 283 279 279 280 283 287 290 291 290 287 282 277 271 264 256 249 245 243 242 242 241 239 236 234 233 232 230 229 229 229 230 228 227 228 229 229 229 231 231 231 231 233 233 233 234 235 236 238 242 243 242 241 241 243 244 244 244 246 246 246 246 245 245 246 246 245 245 245 245 247 248 248
318 316 314 313 309 307 307 306 305 303 302 301 298 293 289 286 283 281 284 286 287 288 287 283 277 273 268 261 255 250 247 244 243 242 241 239 236 234 232 231 231 231 231 231 230 229 230 230 230 230 232 233 233 233 233 234 234 234 236 238 239 242 243 243 242 242 243 245 245 245 246 247 247 247 246 246 247 247 247 247 247 248 250 250 250
315 315 313 313 312 311 309 307 307 305 301 299 298 296 296 296 293 288 285 285 286 286 286 284 280 275 270 265 260 254 250 247 244 242 241 240 239 236 233 232 232 233 233 233 233 232 232 232 231 231 232 233 235 234 234 234 235 235 236 238 240 241 243 243 244 245 245 246 247 246 247 247 247 248 247 247 247 248 248 249 249 251 252 251 251
310 312 312 310 311 311 309 308 308 306 304 302 299 297 295 294 291 287 285 284 284 283 283 283 281 278 274 268 264 260 255 251 248 246 243 242 240 239 237 235 234 234 234 234 234 234 233 233 232 232 232 233 234 235 234 234 235 236 237 239 240 241 243 244 246 247 247 248 248 248 247 246 246 247 248 247 247 247 248 249 250 251 252 253 253
306 308 309 308 307 308 308 309 308 307 306 305 303 300 297 293 289 286 284 282 281 281 280 281 280 278 276 271 266 263 259 256 254 251 248 245 243 242 240 238 236 236 236 236 236 235 234 233 232 232 233 234 235 236 236 235 236 237 238 239 240 241 243 244 246 247 248 248 249 248 247 246 246 246 247 247 248 248 248 249 250 251 252 253 254
306 305 305 305 305 304 305 305 305 305 304 303 302 301 299 294 291 289 286 282 280 278 277 277 277 277 276 273 268 264 261 259 257 255 253 250 248 245 243 241 239 238 238 237 236 235 234 233 232 233 234 234 235 236 237 237 237 238 239 240 241 242 243 244 245 247 247 248 249 249 248 247 246 246 246 246 247 249 250 250 251 252 253 254 255
306 304 303 302 301 300 300 300 301 301 300 300 300 299 298 295 293 290 287 283 280 277 274 273 273 273 274 272 269 266 264 261 258 255 253 253 251 248 245 243 242 241 239 238 237 235 234 234 234 234 235 235 236 237 238 238 239 239 240 241 242 242 243 244 245 246 247 247 248 248 248 247 246 246 245 246 248 250 251 251 252 253 254 255 256
305 303 302 300 298 297 295 295 296 297 297 296 296 295 294 293 291 290 287 284 281 277 274 273 272 272 272 271 268 266 266 264 261 256 253 252 251 249 246 244 243 242 241 239 238 237 236 236 236 236 237 238 239 239 240 240 240 240 241 242 243 243 244 245 245 245 246 247 247 247 247 246 246 246 247 248 250 251 251 252 253 254 255 256 257
303 302 300 298 296 294 292 292 293 294 293 293 292 291 290 289 288 287 286 285 282 278 274 274 273 272 271 270 268 267 267 266 263 259 255 253 252 250 247 246 244 243 242 240 239 238 237 237 238 238 239 239 240 241 241 242 242 242 242 243 243 244 244 245 245 245 246 247 247 247 247 247 247 247 248 249 250 251 252 253 254 254 255 256 257
303 301 299 297 295 294 291 290 290 291 291 290 289 287 286 286 285 284 283 283 282 279 275 274 273 272 271 269 268 267 268 267 264 261 258 255 253 251 250 248 247 245 244 243 242 240 239 238 239 239 240 240 241 242 242 243 243 243 244 244 244 244 244 245 245 245 245 246 247 247 247 248 249 249 249 250 251 252 253 254 254 255 255 256 257
303 301 299 297 296 294 292 291 291 290 290 289 288 286 284 283 283 282 280 279 279 278 276 274 273 272 271 270 269 268 268 267 265 263 260 258 256 254 253 251 250 248 246 245 244 243 241 240 239 240 240 241 242 243 243 244 244 244 245 245 245 244 245 245 246 246 246 246 247 247 247 248 249 250 250 250 251 252 253 254 255 256 256 257 258
302 300 299 297 296 294 293 292 292 291 290 289 288 286 284 282 281 280 279 277 276 276 275 273 272 271 270 269 269 268 268 267 266 264 262 259 258 257 256 253 251 250 248 247 246 244 243 242 241 241 241 242 242 243 243 244 244 244 244 244 245 245 246 246 246 247 247 246 247 248 248 248 249 250 251 252 252 253 254 255 256 257 258 259 260
301 300 298 297 296 295 294 293 292 291 290 289 288 286 285 283 281 280 278 276 275 274 273 272 271 270 269 269 268 268 268 267 267 266 264 262 259 258 258 256 253 252 250 248 247 245 244 243 243 243 243 243 243 243 243 243 243 243 244 245 245 246 246 247 246 246 247 247 247 248 249 248 249 251 252 254 255 255 256 257 258 259 260 261 262
301 299 298 297 296 295 294 293 292 292 291 289 288 286 285 283 281 280 278 276 275 274 273 272 271 270 269 268 268 267 268 267 266 265 264 262 260 258 257 257 256 254 252 249 247 246 244 244 243 244 244 244 243 242 242 242 242 243 244 245 245 246 246 246 246 246 246 247 248 248 249 249 250 251 253 255 256 257 257 258 259 260 261 261 262
301 299 298 297 296 295 294 293 292 291 291 290 288 287 285 283 282 280 278 277 276 274 273 272 271 270 269 268 268 267 268 267 265 263 262 261 259 258 258 257 256 255 253 251 249 247 246 245 245 245 244 244 243 243 242 242 243 244 244 245 244 245 245 246 246 246 246 247 247 248 248 249 250 251 252 254 255 256 256 257 259 260 260 261 262
300 298 297 296 296 295 294 293 292 291 290 290 289 287 286 284 282 280 279 277 276 274 272 271 271 270 269 268 267 267 267 267 264 262 261 260 259 259 258 257 256 255 254 253 252 250 249 248 246 245 244 244 244 243 243 244 244 243 243 244 244 245 246 247 246 246 246 247 247 247 247 249 251 252 252 253 254 255 256 257 259 259 260 260 262
298 297 297 296 295 295 294 293 292 291 290 290 289 288 287 285 283 281 279 277 276 274 272 271 270 270 269 267 267 267 267 266 264 262 261 260 259 259 258 257 256 255 254 254 253 252 251 250 248 246 244 244 244 243 243 243 243 243 243 243 244 246 246 246 245 245 246 246 247 247 248 249 251 252 253 253 254 256 257 258 259 260 260 260 262
297 297 296 296 295 295 294 293 292 291 290 289 288 287 287 285 284 282 280 278 276 275 274 272 271 270 269 267 266 266 266 265 264 263 261 259 258 257 257 256 256 255 255 254 254 253 251 251 249 247 246 245 244 244 243 243 243 244 244 244 245 246 246 245 244 245 246 247 247 248 249 250 251 252 253 254 255 256 257 259 260 260 260 260 262
296 296 295 295 296 295 295 293 292 291 289 288 287 287 286 285 283 282 280 278 276 275 274 273 272 271 270 268 266 265 264 264 264 263 261 260 257 255 255 255 255 255 255 255 254 253 252 251 250 248 246 245 245 245 245 244 244 244 245 245 246 247 246 245 245 245 246 247 247 248 248 249 250 251 253 254 255 257 257 258 259 260 260 260 261
295 295 295 295 295 295 294 293 292 291 290 289 288 287 286 285 284 282 280 278 277 275 274 274 273 271 270 269 266 264 263 263 262 262 261 260 257 255 254 254 255 255 255 254 253 252 252 251 250 249 247 246 246 246 246 245 245 246 246 246 246 246 246 246 245 245 246 246 246 247 247 248 250 251 253 254 255 256 257 258 259 260 260 261 261
295 295 294 294 294 294 294 293 292 291 290 289 288 287 287 286 284 283 281 279 278 276 275 274 273 272 271 269 267 264 263 262 262 261 260 259 257 255 254 254 254 254 254 253 253 252 252 251 251 251 249 248 247 246 246 246 246 246 246 246 245 245 245 245 245 245 245 245 245 246 247 248 250 251 252 254 255 256 257 259 260 261 261 262 262
295 295 294 294 294 293 293 293 292 291 290 290 289 288 287 286 283 282 281 280 278 276 275 274 273 272 271 270 268 265 263 262 261 260 259 259 258 255 254 253 253 253 253 253 253 252 252 251 251 252 251 250 248 247 246 246 246 246 245 245 245 244 243 243 243 244 244 245 245 247 248 249 250 251 252 254 256 257 258 260 261 262 262 263 263
295 295 294 294 293 293 293 293 292 292 291 291 290 289 288 286 284 282 281 280 278 276 275 274 273 272 271 270 268 266 264 263 261 259 258 257 257 256 254 253 253 252 252 252 252 252 252 252 252 252 252 250 249 248 248 248 247 246 245 244 243 242 241 241 242 243 244 245 246 247 249 250 251 252 254 256 257 258 259 260 261 262 263 263 264
295 294 294 293 293 293 294 293 293 293 293 292 292 291 289 287 285 283 281 279 277 276 275 274 272 271 270 268 268 267 265 264 262 259 257 256 256 256 254 253 253 252 251 251 252 252 253 253 252 252 252 250 249 248 248 248 248 246 245 243 242 241 240 241 242 243 244 246 247 248 250 251 252 254 255 256 257 258 259 260 261 262 262 263 264
295 294 294 294 294 294 294 294 294 294 294 294 293 292 291 289 287 285 282 280 278 276 275 273 272 270 269 268 267 266 265 263 262 260 258 256 255 255 254 253 253 253 252 252 252 252 253 252 251 251 250 249 248 247 247 248 247 246 245 243 241 240 240 241 242 244 245 247 248 249 250 251 253 254 255 256 256 257 258 259 260 262 263 264 265
295 294 294 294 294 294 294 294 294 294 294 294 293 293 292 291 289 287 285 282 279 277 275 274 272 271 270 268 267 266 264 262 261 260 258 257 255 254 254 253 252 253 253 253 253 253 253 251 249 248 248 248 247 247 246 246 246 245 244 244 243 242 241 242 243 245 246 247 248 249 250 251 253 253 254 254 255 257 258 259 260 262 264 265 266
296 296 295 295 295 295 294 294 294 294 294 294 294 294 293 293 291 289 287 284 280 278 276 274 273 272 270 268 267 265 264 262 261 259 259 258 256 255 254 253 252 253 254 254 252 252 253 251 248 246 246 246 247 246 245 244 244 245 245 246 246 245 244 243 244 245 246 247 248 249 250 251 252 253 254 254 256 257 258 259 260 262 264 265 266
297 296 296 295 295 295 294 294 294 294 295 295 295 295 295 294 293 291 289 286 282 279 276 274 273 272 271 269 267 265 264 263 262 261 259 259 257 255 254 254 253 253 253 252 250 249 251 252 250 247 246 245 245 245 244 243 243 245 246 246 246 245 245 244 244 244 245 247 248 249 250 251 252 253 254 255 256 257 258 259 260 262 263 264 266
298 298 297 296 296 296 296 295 295 295 296 297 297 298 298 298 297 295 292 289 285 281 278 275 273 272 271 269 268 267 265 264 263 261 260 258 257 255 254 253 252 251 251 250 249 248 249 251 250 249 248 247 246 245 245 244 244 245 245 245 244 243 243 243 243 244 246 247 248 249 250 251 252 253 255 255 256 258 258 259 260 261 262 263 265
300 300 299 298 298 298 298 297 297 297 298 299 300 301 301 301 301 300 298 293 288 283 279 277 275 273 271 270 269 268 267 265 263 262 260 258 257 256 254 253 251 250 249 249 248 248 248 249 249 250 249 248 246 245 245 245 245 245 245 244 243 242 242 242 243 245 247 248 249 250 251 252 253 254 255 256 257 258 259 259 260 261 262 264 265
303 302 301 301 301 302 302 300 300 300 300 302 303 304 304 305 305 304 303 298 293 286 281 278 276 274 273 272 270 269 267 266 264 263 261 259 258 257 255 253 251 249 248 248 248 247 247 248 248 249 249 248 247 247 246 246 246 245 244 244 243 243 243 244 245 247 249 250 251 252 252 253 254 255 256 257 258 258 259 259 260 261 262 264 264
307 306 306 306 306 307 306 305 303 302 303 304 305 306 307 308 309 309 308 304 299 292 285 281 279 277 275 275 273 271 268 266 265 263 262 260 259 257 256 254 252 250 249 248 248 247 247 247 247 247 247 247 248 248 248 247 246 245 245 244 244 244 245 247 248 250 252 253 254 254 254 255 256 257 257 258 258 258 259 259 260 261 262 263 264
313 311 311 311 310 311 310 308 305 305 306 308 308 309 309 311 312 314 314 311 305 299 292 287 283 280 279 277 276 274 271 268 266 264 263 261 259 257 255 254 252 251 250 249 248 247 246 246 246 246 246 247 247 247 248 248 247 246 245 245 245 246 248 249 250 252 254 255 256 256 256 256 257 258 258 258 259 259 259 259 259 260 261 262 263
319 317 316 315 314 313 313 310 309 309 310 310 310 310 310 311 313 315 317 317 314 309 302 295 289 285 283 281 279 277 273 270 267 265 264 262 259 256 254 254 253 252 251 249 249 248 247 246 246 245 246 246 246 247 247 247 248 247 247 247 248 249 250 251 251 252 254 255 256 256 256 257 258 258 259 259 260 260 260 261 261 261 262 262 264
326 324 321 320 318 316 315 314 313 313 313 312 311 311 311 313 315 316 317 319 320 318 312 305 299 294 290 287 285 280 276 272 269 266 265 263 260 257 255 255 254 253 252 251 250 249 248 247 247 246 246 246 247 247 247 247 247 247 248 249 250 251 252 252 251 252 254 256 256 256 257 257 258 258 258 258 259 260 261 261 261 263 264 264 265
332 330 329 327 324 321 319 318 317 316 314 313 313 313 314 316 317 317 317 318 320 321 319 314 309 304 299 296 291 285 279 275 272 269 266 264 261 259 257 255 255 254 254 253 252 251 250 249 248 248 247 247 247 247 248 247 247 247 248 249 250 251 252 252 253 254 255 256 256 257 257 257 258 258 258 258 258 259 260 261 261 263 264 265 265
338 337 335 333 331 328 325 324 323 321 319 317 316 316 315 316 316 317 317 317 319 320 321 319 316 312 307 303 297 289 283 281 278 275 271 268 265 262 260 258 257 256 256 256 255 253 253 252 250 248 248 248 247 247 248 248 248 248 248 249 250 251 252 253 254 255 256 256 257 258 258 258 258 258 258 258 258 259 260 261 263 263 264 264 265
340 340 339 337 335 333 331 330 328 326 324 321 319 317 316 316 316 316 317 317 318 320 321 322 322 319 315 312 306 297 288 284 281 278 275 273 269 266 264 262 260 259 259 259 258 256 255 253 251 250 249 248 248 247 247 248 248 248 248 249 250 251 251 252 253 254 256 257 257 258 258 258 259 259 258 258 258 259 260 262 263 263 264 264 265
340 341 340 339 338 337 335 335 333 331 329 327 325 322 320 318 317 317 318 318 319 319 320 322 324 323 320 319 317 310 299 290 285 281 279 278 275 271 267 264 262 261 260 260 259 257 255 253 251 250 249 248 247 246 247 247 248 247 247 248 249 249 250 251 252 254 255 256 257 258 258 259 259 258 258 258 259 259 260 261 262 263 264 264 265
339 340 340 339 339 338 337 337 336 335 333 331 329 326 323 321 320 320 320 319 318 318 319 321 323 323 321 321 322 318 310 303 298 291 286 285 284 279 272 267 264 262 260 259 256 255 254 253 252 250 249 247 246 246 247 247 247 247 247 247 248 249 250 251 252 253 254 256 257 258 259 260 260 259 259 259 259 260 260 261 262 263 264 265 265
338 339 340 339 339 339 338 338 338 337 335 333 331 328 326 324 322 321 320 319 318 318 318 319 321 322 321 320 320 317 311 308 306 301 294 291 292 290 282 274 269 265 262 259 257 255 256 256 254 252 251 250 248 247 246 245 245 246 247 248 249 250 251 252 253 254 255 256 258 259 259 260 260 260 260 261 261 261 261 262 263 264 264 265 266
338 339 340 339 338 339 339 339 339 339 337 336 334 332 330 327 324 322 321 320 318 318 316 315 316 318 319 319 319 317 312 307 306 304 298 293 292 293 289 283 279 275 270 266 262 261 261 261 260 257 255 253 251 249 248 247 247 248 249 250 251 252 253 255 256 256 257 257 258 260 260 261 261 261 262 262 262 262 263 263 264 265 265 266 266
338 339 340 339 338 339 339 339 340 340 339 338 337 336 335 332 328 326 323 320 318 317 316 313 312 312 314 316 318 318 315 310 305 302 299 295 291 289 288 285 281 278 274 270 267 263 261 261 263 262 259 256 255 254 253 252 253 253 254 255 255 255 256 257 259 259 260 260 260 261 262 263 263 263 263 263 263 263 264 264 265 265 265 266 266
340 340 341 341 340 339 340 340 340 341 341 339 337 337 337 335 332 330 327 324 320 319 318 315 311 309 309 310 312 314 314 310 305 302 300 297 293 289 287 284 281 278 275 271 269 265 260 258 261 265 266 265 264 262 261 260 259 258 258 258 258 258 259 260 260 261 262 261 261 262 263 264 263 263 264 264 264 264 264 265 265 265 265 266 266
342 341 341 341 340 340 341 341 341 342 343 341 339 337 336 335 333 331 330 329 326 323 321 318 313 309 306 306 307 307 308 308 307 304 300 297 294 291 289 286 284 282 279 275 272 269 265 262 263 266 268 269 270 269 267 266 265 264 263 263 262 263 263 263 263 263 264 263 263 263 263 264 264 264 265 265 264 264 264 265 265 265 265 265 266
340 340 339 340 340 341 344 344 344 345 345 345 343 341 338 336 334 332 332 332 331 328 325 322 318 314 310 307 305 303 304 305 305 304 301 298 296 296 294 291 287 284 281 279 275 272 269 268 268 268 269 271 272 272 271 270 269 267 266 266 266 267 267 266 265 265 266 266 265 264 265 265 266 266 266 266 265 265 265 265 265 265 265 266 266
340 341 341 342 342 345 348 349 349 349 349 350 350 349 345 342 339 337 335 334 333 331 329 326 322 318 315 312 308 306 305 304 303 301 299 297 296 296 297 296 293 288 284 282 279 275 272 271 271 272 272 273 275 275 274 273 272 271 270 270 270 271 271 270 268 268 268 268 266 266 266 267 267 268 268 267 267 267 266 266 266 266 266 266 266
348 348 349 349 349 351 353 354 354 354 354 354 355 354 353 351 348 343 339 335 334 334 334 332 327 323 319 316 312 309 309 308 307 304 302 298 296 294 294 295 294 292 289 285 282 279 277 276 275 275 275 276 277 278 276 275 274 274 274 274 275 274 274 272 271 271 271 269 268 268 268 268 268 268 269 269 268 268 268 267 267 268 267 267 266
0 360 359 359 359 360 360 359 359 358 358 357 357 357 357 356 354 351 346 341 338 337 338 338 335 330 325 320 316 313 310 310 310 310 307 304 301 298 297 295 294 293 291 289 286 283 281 279 278 277 275 275 277 279 279 277 277 277 277 278 278 277 276 274 273 273 273 271 270 269 270 270 270 269 270 270 270 270 270 270 270 269 269 268 267